This is the latest recevied weather packets stored in our database for station/object IW3HBX-3. If no packets are shown the sender has not sent any weather packets the latest 10 day(s).
| Time | Temp. | Humidity | Pressure | Rain* | Wind** | Luminosity | Snow |
|---|---|---|---|---|---|---|---|
| 1777879758 | 19.44° C | 59% | 1018.2 hPa | 0 mm | - | 408 W/m² | - |
| 1777879458 | 20° C | 58% | 1018.2 hPa | 0 mm | - | 435 W/m² | - |
| 1777879158 | 19.44° C | 59% | 1018.1 hPa | 0 mm | - | 446 W/m² | - |
| 1777878857 | 19.44° C | 58% | 1018.1 hPa | 0 mm | - | 405 W/m² | - |
| 1777878557 | 19.44° C | 59% | 1018.1 hPa | 0 mm | - | 382 W/m² | - |
| 1777878257 | 18.89° C | 59% | 1018 hPa | 0 mm | - | 407 W/m² | - |
| 1777877957 | 18.89° C | 62% | 1018 hPa | 0 mm | - | 347 W/m² | - |
| 1777877357 | 18.33° C | 60% | 1018 hPa | 0 mm | - | 257 W/m² | - |
| 1777877057 | 18.33° C | 63% | 1018 hPa | 0 mm | - | 317 W/m² | - |
| 1777876757 | 18.89° C | 60% | 1017.9 hPa | 0 mm | - | 301 W/m² | - |
| 1777876457 | 18.33° C | 60% | 1017.8 hPa | 0 mm | - | 279 W/m² | - |
| 1777876157 | 18.33° C | 62% | 1017.8 hPa | 0 mm | - | 259 W/m² | - |
| 1777875857 | 17.78° C | 61% | 1017.8 hPa | 0 mm | - | 239 W/m² | - |
| 1777875557 | 17.22° C | 63% | 1017.9 hPa | 0 mm | - | 220 W/m² | - |
| 1777875256 | 16.67° C | 63% | 1017.9 hPa | 0 mm | - | 207 W/m² | - |
| 1777874956 | 17.22° C | 63% | 1017.8 hPa | 0 mm | - | 191 W/m² | - |
| 1777874656 | 16.67° C | 64% | 1017.8 hPa | 0 mm | - | 173 W/m² | - |
| 1777874356 | 16.11° C | 65% | 1017.7 hPa | 0 mm | - | 152 W/m² | - |
| 1777874056 | 16.11° C | 65% | 1017.7 hPa | 0 mm | - | 112 W/m² | - |
| 1777873756 | 16.11° C | 66% | 1017.7 hPa | 0 mm | - | 116 W/m² | - |
| 1777873456 | 15.56° C | 66% | 1017.7 hPa | 0 mm | - | 111 W/m² | - |
| 1777873156 | 15.56° C | 67% | 1017.7 hPa | 0 mm | - | 110 W/m² | - |
| 1777872856 | 15° C | 67% | 1017.7 hPa | 0 mm | - | 99 W/m² | - |
| 1777872556 | 15° C | 69% | 1017.7 hPa | 0 mm | - | 62 W/m² | - |
| 1777872256 | 15.56° C | 67% | 1017.6 hPa | 0 mm | - | 70 W/m² | - |
* Rain latest hour (hover to see other rain measurements)
** Current wind speed in m/s (hover to see current wind gust speed)